When you browse on this site, cookies collect data to enhance your experience and personalize the content and advertising you see.
Visit our Privacy Policy to learn more. By continuing to use the site, you agree to this use of cookies and data.
  • In France
  • List of Countries
  • For 7 days
  • Water Temperature
  • Satellite Maps
  • Weather Map
  • Weather Widgets
  • user-avatar
    Login

    Hourly Weather Kapan

    Today, 16 January, Wednesday

    Time Temperature Precipitation Wind Pressure Humidity
    00:00 +3°C° 0 mm 3 mps 682 mmHg 58%
    01:00 +3°C° 0 mm 3 mps 682 mmHg 59%
    02:00 +3°C° 0 mm 3 mps 682 mmHg 61%
    03:00 +4°C° 0 mm 4 mps 681 mmHg 62%
    04:00 +4°C° 0 mm 4 mps 681 mmHg 63%
    05:00 +3°C° 0 mm 4 mps 681 mmHg 64%
    06:00 +3°C° 0 mm 4 mps 681 mmHg 65%
    07:00 +4°C° 0 mm 4 mps 681 mmHg 62%
    08:00 +5°C° 0 mm 4 mps 681 mmHg 59%
    09:00 +6°C° 0 mm 4 mps 681 mmHg 55%
    10:00 +7°C° 0 mm 4 mps 681 mmHg 50%
    11:00 +8°C° 0 mm 4 mps 680 mmHg 45%
    12:00 +11°C° 0 mm 4 mps 680 mmHg 40%
    13:00 +11°C° 0 mm 4 mps 680 mmHg 39%
    14:00 +11°C° 0 mm 3 mps 679 mmHg 38%
    15:00 +11°C° 0 mm 3 mps 679 mmHg 37%
    16:00 +9°C° 0 mm 3 mps 679 mmHg 40%
    17:00 +8°C° 0 mm 3 mps 678 mmHg 43%
    18:00 +6°C° 0 mm 2 mps 678 mmHg 45%
    19:00 +5°C° 0 mm 3 mps 678 mmHg 45%
    20:00 +4°C° 0 mm 3 mps 677 mmHg 44%
    21:00 +4°C° 0 mm 3 mps 677 mmHg 43%
    22:00 +5°C° 0 mm 2 mps 676 mmHg 45%
    23:00 +5°C° 0 mm 2 mps 676 mmHg 46%

    Tomorrow, 17 January, Thursday

    Time Temperature Precipitation Wind Pressure Humidity
    00:00 +4°C° 0 mm 2 mps 675 mmHg 47%
    01:00 +4°C° 0 mm 2 mps 675 mmHg 50%
    02:00 +5°C° 0 mm 1 mps 675 mmHg 52%
    03:00 +5°C° 0 mm 1 mps 674 mmHg 54%
    04:00 +5°C° 0.2 mm 1 mps 674 mmHg 57%
    05:00 +5°C° 0.2 mm 1 mps 674 mmHg 60%
    06:00 +4°C° 0.2 mm 1 mps 673 mmHg 63%
    07:00 +4°C° 0.7 mm 1 mps 674 mmHg 66%
    08:00 +4°C° 0.7 mm 1 mps 674 mmHg 69%
    09:00 +4°C° 0.7 mm 2 mps 674 mmHg 72%
    10:00 +4°C° 0.4 mm 2 mps 674 mmHg 71%
    11:00 +4°C° 0.4 mm 2 mps 674 mmHg 71%
    12:00 +4°C° 0.4 mm 2 mps 674 mmHg 71%
    13:00 +3°C° 0.3 mm 2 mps 674 mmHg 74%
    14:00 +3°C° 0.3 mm 2 mps 674 mmHg 76%
    15:00 +3°C° 0.3 mm 2 mps 675 mmHg 78%
    16:00 +2°C° 0.3 mm 2 mps 675 mmHg 82%
    17:00 +2°C° 0.3 mm 2 mps 676 mmHg 85%
    18:00 +1°C° 0.3 mm 2 mps 677 mmHg 88%
    19:00 +2°C° 0.5 mm 1 mps 677 mmHg 89%
    20:00 +2°C° 0.5 mm 1 mps 678 mmHg 89%
    21:00 +1°C° 0.5 mm 1 mps 678 mmHg 89%
    22:00 +1°C° 0.4 mm 1 mps 679 mmHg 89%
    23:00 +1°C° 0.4 mm 1 mps 680 mmHg 89%

    Day after tomorrow, 18 January, Friday

    Time Temperature Precipitation Wind Pressure Humidity
    00:00 0°C° 0.4 mm 0 mps 680 mmHg 89%
    01:00 0°C° 0.3 mm 0 mps 681 mmHg 88%
    02:00 -1°C° 0.3 mm 0 mps 681 mmHg 87%
    03:00 -1°C° 0.3 mm 0 mps 682 mmHg 86%
    04:00 -1°C° 0.2 mm 0 mps 682 mmHg 85%
    05:00 -1°C° 0.2 mm 0 mps 682 mmHg 85%
    06:00 -1°C° 0.2 mm 0 mps 683 mmHg 84%
    07:00 -1°C° 0.1 mm 0 mps 683 mmHg 81%
    08:00 0°C° 0.1 mm 0 mps 684 mmHg 79%
    09:00 0°C° 0.1 mm 0 mps 685 mmHg 76%
    10:00 +2°C° 0.1 mm 1 mps 685 mmHg 72%
    11:00 +3°C° 0.1 mm 1 mps 685 mmHg 69%
    12:00 +4°C° 0.1 mm 1 mps 685 mmHg 66%
    13:00 +4°C° 0.1 mm 1 mps 685 mmHg 64%
    14:00 +4°C° 0.1 mm 1 mps 685 mmHg 63%
    15:00 +4°C° 0.1 mm 1 mps 684 mmHg 62%
    16:00 +3°C° 0 mm 1 mps 685 mmHg 65%
    17:00 +2°C° 0 mm 1 mps 685 mmHg 68%
    18:00 +1°C° 0 mm 1 mps 685 mmHg 72%
    19:00 0°C° 0 mm 1 mps 685 mmHg 70%
    20:00 0°C° 0 mm 1 mps 686 mmHg 69%
    21:00 -2°C° 0 mm 2 mps 686 mmHg 67%
    22:00 -2°C° 0 mm 2 mps 686 mmHg 65%
    23:00 -2°C° 0 mm 2 mps 686 mmHg 64%

    19 January, Saturday

    Time Temperature Precipitation Wind Pressure Humidity
    00:00 -2°C° 0 mm 2 mps 686 mmHg 62%
    01:00 -3°C° 0 mm 2 mps 686 mmHg 62%
    02:00 -4°C° 0 mm 3 mps 686 mmHg 61%
    03:00 -4°C° 0 mm 3 mps 686 mmHg 60%
    04:00 -4°C° 0 mm 3 mps 686 mmHg 60%
    05:00 -4°C° 0 mm 3 mps 686 mmHg 60%
    06:00 -5°C° 0 mm 3 mps 686 mmHg 60%
    07:00 -4°C° 0 mm 3 mps 686 mmHg 58%
    08:00 -1°C° 0 mm 3 mps 687 mmHg 56%
    09:00 0°C° 0 mm 3 mps 687 mmHg 54%
    10:00 +2°C° 0 mm 2 mps 687 mmHg 50%
    11:00 +3°C° 0 mm 2 mps 687 mmHg 46%
    12:00 +5°C° 0 mm 2 mps 687 mmHg 43%
    13:00 +5°C° 0 mm 2 mps 686 mmHg 43%
    14:00 +5°C° 0 mm 2 mps 686 mmHg 43%
    15:00 +5°C° 0 mm 2 mps 686 mmHg 43%
    16:00 +4°C° 0 mm 2 mps 686 mmHg 45%
    17:00 +2°C° 0 mm 2 mps 686 mmHg 48%
    18:00 -1°C° 0 mm 2 mps 687 mmHg 51%
    19:00 -1°C° 0 mm 2 mps 687 mmHg 51%
    20:00 -1°C° 0 mm 2 mps 687 mmHg 50%
    21:00 -2°C° 0 mm 2 mps 687 mmHg 50%
    22:00 -2°C° 0 mm 2 mps 687 mmHg 49%
    23:00 -2°C° 0 mm 2 mps 687 mmHg 47%

    20 January, Sunday

    Time Temperature Precipitation Wind Pressure Humidity
    00:00 -2°C° 0 mm 2 mps 687 mmHg 46%
    01:00 -2°C° 0 mm 2 mps 687 mmHg 45%
    02:00 -3°C° 0 mm 2 mps 687 mmHg 44%
    03:00 -3°C° 0 mm 2 mps 687 mmHg 43%
    04:00 -3°C° 0 mm 2 mps 687 mmHg 43%
    05:00 -3°C° 0 mm 2 mps 687 mmHg 42%
    06:00 -3°C° 0 mm 2 mps 687 mmHg 41%
    07:00 -2°C° 0 mm 2 mps 688 mmHg 41%
    08:00 -1°C° 0 mm 2 mps 688 mmHg 41%
    09:00 +2°C° 0 mm 1 mps 689 mmHg 41%
    10:00 +3°C° 0 mm 1 mps 688 mmHg 38%
    11:00 +4°C° 0 mm 1 mps 688 mmHg 35%
    12:00 +5°C° 0 mm 1 mps 688 mmHg 32%
    13:00 +5°C° 0 mm 1 mps 688 mmHg 33%
    14:00 +5°C° 0 mm 1 mps 687 mmHg 35%
    15:00 +5°C° 0 mm 1 mps 687 mmHg 37%
    16:00 +4°C° 0 mm 1 mps 687 mmHg 43%
    17:00 +2°C° 0 mm 1 mps 687 mmHg 49%
    18:00 +1°C° 0 mm 1 mps 687 mmHg 54%
    19:00 +1°C° 0 mm 1 mps 687 mmHg 55%
    20:00 0°C° 0 mm 1 mps 687 mmHg 55%
    21:00 0°C° 0 mm 1 mps 688 mmHg 55%
    22:00 0°C° 0 mm 1 mps 687 mmHg 52%
    23:00 0°C° 0 mm 1 mps 687 mmHg 50%

    21 January, Monday

    Time Temperature Precipitation Wind Pressure Humidity
    00:00 -3°C° 0 mm 2 mps 687 mmHg 47%
    01:00 -3°C° 0 mm 2 mps 687 mmHg 46%
    02:00 -3°C° 0 mm 2 mps 687 mmHg 45%
    03:00 -3°C° 0 mm 2 mps 687 mmHg 44%
    04:00 -3°C° 0 mm 2 mps 687 mmHg 45%
    05:00 -3°C° 0 mm 2 mps 687 mmHg 45%
    06:00 -3°C° 0 mm 2 mps 687 mmHg 46%
    07:00 -2°C° 0 mm 2 mps 687 mmHg 46%
    08:00 +1°C° 0 mm 1 mps 687 mmHg 46%
    09:00 +2°C° 0 mm 1 mps 688 mmHg 46%
    10:00 +3°C° 0 mm 1 mps 687 mmHg 44%
    11:00 +3°C° 0 mm 2 mps 687 mmHg 42%
    12:00 +5°C° 0 mm 2 mps 686 mmHg 40%
    13:00 +5°C° 0 mm 2 mps 686 mmHg 41%
    14:00 +5°C° 0 mm 2 mps 685 mmHg 42%
    15:00 +5°C° 0 mm 2 mps 685 mmHg 43%
    16:00 +3°C° 0 mm 2 mps 685 mmHg 47%
    17:00 +3°C° 0 mm 1 mps 685 mmHg 52%
    18:00 +1°C° 0 mm 1 mps 685 mmHg 57%
    19:00 -1°C° 0 mm 2 mps 685 mmHg 55%
    20:00 -1°C° 0 mm 2 mps 684 mmHg 52%
    21:00 -2°C° 0 mm 2 mps 684 mmHg 50%
    22:00 -2°C° 0 mm 2 mps 684 mmHg 49%
    23:00 -2°C° 0 mm 2 mps 684 mmHg 47%
    Show more